Flag for France

Past Weather in 47°20'47.6"N, 3°08'53.4"W, France — Yesterday and Last 2 Weeks

Currently: 68 °F. Passing clouds. (Weather station: St-Nazaire, France). See more current weather

Past Weather in 47°20'47.6"N, 3°08'53.4"W — Graph

°F

47°20'47.6"N, 3°08'53.4"W Temperature Yesterday

Maximum temperature yesterday: 64 °F (at 2:30 pm)
Minimum temperature yesterday: 59 °F (at 3:00 am)
Average temperature yesterday: 61 °F

High & Low Weather Summary for the Past Weeks

 TemperatureHumidityPressure
High72 °F (May 19, 6:00 pm)100% (May 16, 7:30 am)30.15 "Hg (May 16, 7:30 am)
Low46 °F (May 18, 6:00 am)40% (May 30, 5:00 pm)29.62 "Hg (May 15, 5:00 pm)
Average59 °F80%29.93 "Hg
* Reported May 15 5:00 pm — May 30 5:30 pm, 47°20'47.6"N, 3°08'53.4"W. Weather by CustomWeather, © 2024

Note: Actual official high and low records may vary slightly from our data, if they occured in-between our weather recording intervals... More about our weather records

47°20'47.6"N, 3°08'53.4"W Weather History for the Previous 24 Hours

Scroll right to see more
 ConditionsComfort  
Time TempWeatherWind HumidityBarometerVisibility
5:30 pm
Thu, May 30
68 °FPassing clouds.13 mph43%29.98 "HgN/A
5:00 pm70 °FPassing clouds.12 mph40%29.95 "HgN/A
4:30 pm68 °FScattered clouds.12 mph46%29.95 "HgN/A
4:00 pm68 °FMild.13 mph53%29.95 "HgN/A
3:00 pm68 °FPassing clouds.13 mph49%29.95 "HgN/A
2:30 pm66 °FMild.12 mph49%29.95 "HgN/A
2:00 pm64 °FMild.13 mph56%29.95 "HgN/A
1:30 pm64 °FPartly sunny.14 mph64%29.95 "HgN/A
1:00 pm66 °FPartly sunny.16 mph64%29.95 "HgN/A
12:30 pm66 °FBroken clouds.14 mph64%29.95 "HgN/A
12:00 pm64 °FBroken clouds.14 mph68%29.95 "HgN/A
11:30 am63 °FScattered clouds.10 mph73%29.95 "HgN/A
11:00 am63 °FBroken clouds.10 mph73%29.95 "HgN/A
10:30 am61 °FPartly sunny.13 mph77%29.95 "HgN/A
10:00 am61 °FPassing clouds.9 mph72%29.95 "HgN/A
9:30 am59 °FPassing clouds.9 mph77%29.95 "HgN/A
9:00 am59 °FPassing clouds.9 mph72%29.95 "HgN/A
8:30 am57 °FPassing clouds.9 mph77%29.95 "HgN/A
8:00 am57 °FPartly sunny.8 mph82%29.95 "HgN/A
7:00 am57 °FOvercast.8 mph82%29.95 "HgN/A
6:30 am57 °FOvercast.9 mph82%29.92 "HgN/A
6:00 am57 °FOvercast.8 mph82%29.92 "HgN/A
5:30 am57 °FOvercast.7 mph82%29.92 "HgN/A
5:00 am57 °FOvercast.6 mph82%29.92 "HgN/A
4:30 am57 °FOvercast.7 mph82%29.92 "HgN/A
4:00 am57 °FOvercast.6 mph82%29.92 "HgN/A
3:30 am55 °FPassing clouds.6 mph88%29.95 "HgN/A
3:00 am55 °FPassing clouds.6 mph82%29.95 "HgN/A
2:30 am57 °FOvercast.6 mph77%29.95 "HgN/A
2:00 am57 °FOvercast.5 mph77%29.95 "HgN/A
1:00 am59 °FMostly cloudy.6 mph82%29.95 "HgN/A
12:00 am59 °FPassing clouds.9 mph88%29.92 "HgN/A
11:30 pm
Wed, May 29
59 °FMostly cloudy.9 mph88%29.92 "HgN/A
11:00 pm59 °FMostly cloudy.9 mph94%29.92 "HgN/A
10:30 pm59 °FMostly cloudy.10 mph94%29.92 "HgN/A
10:00 pm61 °FLow clouds.9 mph94%29.92 "HgN/A
9:30 pm61 °FLow clouds.12 mph94%29.92 "HgN/A
9:00 pm61 °FLow clouds.12 mph94%29.92 "HgN/A
8:30 pm61 °FMostly cloudy.12 mph94%29.92 "HgN/A
8:00 pm61 °FMostly cloudy.12 mph94%29.92 "Hg4 mi
7:30 pm61 °FDrizzle. Mostly cloudy.10 mph100%29.92 "Hg4 mi
7:00 pm61 °FDrizzle. Fog.13 mph94%29.92 "Hg1 mi
6:30 pm63 °FMostly cloudy.14 mph88%29.92 "HgN/A
6:00 pm63 °FMostly cloudy.14 mph94%29.92 "HgN/A
Weather by CustomWeather, © 2024

See weather overview